Weather History for PAHO - January, 2014

Change the Weather History Date:

Friday, January 24, 2014

  Actual Average Record
Temperature  
Mean Temperature 44 °F -  
Max Temperature 50 °F 28 °F 50 °F (2014)
Min Temperature 37 °F 16 °F -17 °F (1947)
Degree Days  
Heating Degree Days 22    
Moisture  
Dew Point 34 °F    
Average Humidity 65    
Maximum Humidity 83    
Minimum Humidity 48    
Precipitation  
Precipitation 0.06 in - - ()
Sea Level Pressure  
Sea Level Pressure 29.87 in    
Wind  
Wind Speed 4 mph (SSE)    
Max Wind Speed 10 mph    
Max Gust Speed 21 mph    
Visibility 10 miles    
Events Rain    
Averages and records for this station are not official NWS values.
T = Trace of Precipitation, MM = Missing Value Source: NWS Daily Summary

Daily Weather History Graph

Daily Weather History Graph

Search for Another Location

Airport or City:

Trip Planner

Search our weather history database for the weather conditions in past years. The results will help you decide how hot, cold, wet, or windy it might be!

Date:

Astronomy

Jan. 24, 2014 Rise Set
Actual Time 9:34 AM AKST 5:02 PM AKST
Civil Twilight 8:45 AM AKST 5:51 PM AKST
Nautical Twilight 7:53 AM AKST 6:43 PM AKST
Astronomical Twilight 7:05 AM AKST 7:31 PM AKST
Moon 2:53 AM AKST (1/24) 11:42 AM AKST (1/24)
Length of Visible Light 9h 06m
Length of Day
7h 28m
Last Quarter, 43% of the Moon is Illuminated
Jan 24
Last Quarter
Jan 30
New
Feb 6
First Quarter
Feb 14
Full
Feb 22
Last Quarter

Hourly Weather History & Observations

Time (AKST) Temp. Windchill Dew Point Humidity Pressure Visibility Wind Dir Wind Speed Gust Speed Precip Events Conditions
12:53 AM 48.9 °F - 37.0 °F 64% 29.49 in 10.0 mi Variable 3.5 mph - 0.01 in Rain Light Rain
1:53 AM 48.9 °F - 37.9 °F 66% 29.52 in 10.0 mi ESE 5.8 mph - 0.00 in Rain Light Rain
2:53 AM 50.0 °F - 37.9 °F 63% 29.53 in 10.0 mi SSE 8.1 mph - 0.01 in   Overcast
3:53 AM 50.0 °F - 37.0 °F 61% 29.59 in 10.0 mi South 5.8 mph - N/A   Overcast
4:53 AM 48.0 °F - 37.9 °F 68% 29.64 in 10.0 mi SSW 10.4 mph - N/A   Overcast
5:53 AM 48.0 °F - 37.0 °F 66% 29.70 in 10.0 mi Variable 5.8 mph - N/A   Clear
6:53 AM 46.9 °F - 36.0 °F 66% 29.75 in 10.0 mi WSW 5.8 mph - N/A   Clear
7:53 AM 46.9 °F - 36.0 °F 66% 29.77 in 10.0 mi Calm Calm - N/A   Clear
8:53 AM 46.0 °F - 35.1 °F 66% 29.81 in 10.0 mi Calm Calm - N/A   Clear
9:53 AM 43.0 °F - 33.1 °F 68% 29.87 in 10.0 mi Calm Calm - N/A   Clear
10:53 AM 48.0 °F - 34.0 °F 58% 29.91 in 10.0 mi WSW 3.5 mph - N/A   Clear
11:53 AM 48.9 °F - 34.0 °F 56% 29.95 in 10.0 mi Calm Calm - N/A   Clear
12:53 PM 50.0 °F - 34.0 °F 54% 29.99 in 10.0 mi Calm Calm - N/A   Clear
1:53 PM 50.0 °F - 30.9 °F 48% 29.99 in 10.0 mi SSE 10.4 mph 20.7 mph N/A   Scattered Clouds
2:53 PM 50.0 °F - 30.9 °F 48% 30.01 in 10.0 mi Variable 3.5 mph - N/A   Mostly Cloudy
3:53 PM 48.9 °F - 32.0 °F 52% 30.02 in 10.0 mi Calm Calm - N/A   Mostly Cloudy
4:53 PM 44.1 °F - 32.0 °F 63% 30.04 in 10.0 mi Calm Calm - N/A   Mostly Cloudy
5:53 PM 39.0 °F 35.7 °F 30.9 °F 73% 30.06 in 10.0 mi North 4.6 mph - N/A   Mostly Cloudy
6:53 PM 41.0 °F - 32.0 °F 70% 30.06 in 10.0 mi Calm Calm - N/A   Mostly Cloudy
7:53 PM 37.9 °F - 30.9 °F 76% 30.07 in 10.0 mi Calm Calm - N/A   Clear
8:53 PM 39.0 °F - 32.0 °F 76% 30.06 in 10.0 mi Calm Calm - N/A   Mostly Cloudy
9:53 PM 42.1 °F 40.2 °F 34.0 °F 73% 30.06 in 10.0 mi SSE 3.5 mph - N/A   Overcast
10:53 PM 39.9 °F - 34.0 °F 79% 30.06 in 8.0 mi Calm Calm - 0.01 in Rain Light Rain
11:53 PM 39.9 °F 37.8 °F 35.1 °F 83% 30.03 in 8.0 mi ENE 3.5 mph - 0.03 in Rain Light Rain